Theta_e
322 323 324 324 325 326 326 326 327 328 329 329 329 329 330 330 331 330 332 332 334 337 339 339 340 337 335 330 329 329 329 330 332 332 332 340 337 343 345 344 342 342 343 344
325 324 326 327 327 326 326 326 326 327 327 327 327 327 329 329 329 330 330 330 331 335 337 340 341 340 338 336 331 330 329 330 332 333 331 331 340 340 343 342 343 342 345 345
325 327 326 326 326 325 325 324 325 325 327 328 328 326 327 328 328 329 329 330 330 330 334 340 341 341 340 338 337 334 330 329 330 336 336 333 335 340 341 341 341 343 342 345
327 327 327 325 325 325 325 326 326 326 326 327 329 328 331 330 329 329 329 330 330 332 332 337 341 342 341 341 340 338 337 334 329 329 336 335 335 338 338 341 339 340 342 343
328 327 326 325 325 325 325 328 327 327 327 328 328 328 329 330 330 330 330 330 331 331 332 334 336 342 342 343 342 342 342 342 342 333 325 334 335 336 338 337 341 340 341 342
328 328 327 326 326 325 327 327 327 327 327 328 328 329 329 330 330 330 332 332 333 333 335 336 338 339 341 343 344 344 343 342 342 342 339 327 324 332 336 336 337 340 341 343
330 328 328 326 326 326 327 327 328 329 329 330 333 329 331 332 332 332 334 335 336 336 338 340 341 341 342 342 342 343 343 348 345 344 342 339 338 329 325 328 334 338 343 347
332 330 329 328 328 327 328 328 328 332 331 331 333 332 332 333 331 333 337 337 337 337 338 339 340 340 341 341 341 341 343 345 346 350 351 347 343 341 338 331 329 334 337 345
331 330 329 328 328 328 329 330 330 331 331 331 331 331 334 335 336 337 338 337 336 335 334 334 334 334 334 335 336 337 338 339 341 345 345 343 350 350 348 345 340 336 336 343
331 332 329 329 328 328 328 329 330 332 334 334 332 334 336 337 338 337 337 336 334 333 332 332 332 331 330 330 330 331 332 332 334 336 342 345 345 346 352 350 349 346 343 339
328 330 331 328 328 328 329 329 331 330 331 332 332 335 342 342 340 339 335 334 333 332 331 330 330 329 328 328 327 327 327 327 328 328 330 336 340 346 342 344 347 348 347 345
332 333 332 329 330 329 329 329 331 332 331 330 331 333 338 338 337 336 334 333 332 331 330 329 328 328 327 326 326 325 324 324 324 324 326 328 331 339 346 346 344 342 343 345
335 332 331 330 330 330 330 331 331 333 334 334 334 331 337 335 335 334 333 332 331 330 330 329 328 326 325 324 323 323 323 323 323 322 322 323 326 325 334 341 345 346 346 344
330 332 332 331 331 330 332 333 332 333 334 332 332 332 332 337 335 332 330 329 328 327 326 326 328 326 322 320 319 319 320 321 321 322 322 322 321 324 327 329 341 344 342 342
331 332 330 330 330 331 330 330 330 330 329 329 328 327 328 332 330 329 328 327 325 322 320 321 325 324 322 319 318 318 318 317 319 320 320 321 321 321 322 328 327 337 344 342
332 333 330 329 327 326 325 325 325 324 323 324 323 323 328 325 323 322 322 321 320 319 320 320 319 318 317 317 316 317 318 318 318 318 319 320 320 320 321 322 326 327 326 340
329 330 330 329 326 325 325 325 324 324 325 327 327 326 324 322 320 319 318 318 319 319 319 318 318 317 317 317 317 317 317 317 318 318 319 319 319 320 320 322 323 324 324 325
326 328 328 328 326 327 325 326 326 325 324 323 324 324 322 320 319 318 318 318 318 317 317 317 317 318 318 319 319 320 320 320 319 319 318 319 319 319 320 321 322 320 323 326
326 326 327 327 326 326 325 326 324 324 325 323 323 322 320 319 318 318 318 318 317 318 318 319 319 319 319 320 320 319 319 319 319 319 321 319 319 319 320 321 322 322 318 323
322 326 325 326 325 326 327 322 320 320 322 320 319 318 318 317 319 318 318 318 318 319 319 319 319 318 319 318 319 318 318 318 317 318 319 319 319 322 320 320 321 322 321 321
323 323 325 323 324 324 323 320 319 322 323 318 317 317 317 318 318 318 318 318 318 318 318 318 317 317 317 318 319 318 318 318 318 318 317 316 316 317 319 320 318 320 322 321
324 325 325 326 325 325 319 321 323 319 318 317 317 316 317 318 317 318 317 317 316 316 316 316 316 317 318 318 319 319 318 318 318 316 316 317 315 315 316 318 319 317 317 320
322 324 327 324 322 322 317 317 316 316 316 316 316 317 316 317 317 316 316 316 315 315 316 316 317 318 318 318 319 318 317 317 316 317 317 317 316 316 315 317 318 315 318 320
322 320 319 319 318 317 316 316 316 317 318 317 316 316 316 316 316 316 315 315 313 314 315 315 316 316 317 318 317 318 318 317 319 317 317 316 316 316 315 316 317 318 319 320
319 318 319 319 317 316 316 317 317 317 316 316 316 315 315 315 315 315 315 314 314 315 316 316 317 316 316 316 316 315 315 317 318 316 316 317 317 317 315 316 318 319 316 319
316 318 317 320 318 318 317 317 316 317 317 316 315 315 315 315 314 314 313 315 315 315 315 316 315 315 314 314 314 314 315 315 316 317 317 317 317 316 316 317 316 315 317 319
Wind_Speed
15 11 13 17 18 17 20 14 15 14 7 9 5 9 16 18 17 17 12 14 17 23 27 31 28 28 28 31 33 36 36 35 31 31 32 28 31 29 28 27 25 24 25 20
10 13 16 15 13 7 11 11 14 15 14 13 16 16 15 15 21 16 14 11 14 17 23 33 32 31 32 32 34 35 37 36 34 34 35 33 29 28 28 27 28 27 26 24
16 14 10 7 6 6 12 12 13 13 12 11 11 15 16 17 25 16 20 8 8 13 11 30 35 33 32 33 35 36 36 38 38 33 30 31 29 29 28 31 30 30 32 30
11 15 7 6 10 10 11 14 14 11 12 9 12 14 14 19 17 15 18 6 16 6 14 21 28 33 32 29 30 34 34 34 38 39 33 37 37 37 38 32 33 33 35 37
12 12 9 8 11 9 11 8 9 7 9 12 15 9 12 1 17 11 11 3 16 17 18 21 22 21 27 25 25 29 32 32 28 35 41 35 38 36 32 36 30 34 36 37
15 5 4 10 11 11 8 4 8 11 11 12 16 12 12 1 8 8 21 21 16 16 17 15 16 14 16 10 2 16 33 38 36 32 32 38 47 41 35 38 37 34 39 42
16 16 13 7 10 10 8 9 8 9 10 12 9 13 12 8 13 17 18 21 17 16 15 14 13 15 16 14 13 10 9 31 34 36 37 35 36 44 49 45 39 36 37 42
12 14 17 13 8 8 14 11 9 13 12 8 11 7 9 16 19 21 23 19 15 14 14 15 12 11 12 15 17 14 11 8 5 17 36 38 44 43 43 50 49 40 45 43
7 4 12 6 3 7 7 11 13 11 12 11 9 11 20 18 18 21 20 17 16 14 11 9 11 9 11 12 13 15 15 15 11 9 10 16 30 40 42 42 42 45 48 43
5 6 7 10 1 9 10 9 5 6 8 10 10 6 5 11 14 13 15 15 12 11 10 9 10 10 11 11 13 14 13 15 14 15 12 11 15 19 38 40 41 40 43 48
8 3 13 6 6 12 6 9 7 8 7 8 9 3 9 12 12 13 13 11 10 8 9 10 9 10 11 12 13 16 15 15 16 18 16 14 16 12 20 26 32 36 38 42
5 2 9 15 16 14 8 10 10 7 9 9 10 8 11 11 10 11 10 7 6 7 7 8 8 10 11 13 15 16 17 17 17 19 15 17 18 18 12 19 27 30 35 38
5 5 7 12 13 15 9 6 8 7 3 9 10 9 10 10 16 10 8 8 7 7 9 10 10 12 13 16 19 19 19 20 20 23 23 18 19 21 21 18 16 25 30 30
5 4 7 10 17 13 11 13 8 10 7 10 12 15 11 11 10 5 6 9 13 14 17 16 12 11 14 20 23 25 25 24 24 25 24 27 26 21 23 25 23 22 24 31
1 6 10 14 15 17 15 16 16 17 16 15 16 17 13 13 10 11 9 11 14 17 19 19 19 18 19 25 27 27 28 29 28 27 28 28 28 31 26 23 29 26 26 28
7 5 8 13 14 16 19 19 19 19 17 17 16 15 12 16 16 18 18 20 20 19 17 21 23 26 29 31 31 32 30 30 32 32 30 30 30 29 30 28 28 31 30 31
5 5 7 12 13 15 15 14 11 10 17 5 6 10 12 10 14 16 21 23 19 19 21 25 27 29 30 31 32 32 35 36 34 34 33 33 33 31 31 29 32 35 33 32
8 8 7 10 11 13 13 1 1 4 7 10 3 10 12 14 16 19 19 19 21 22 24 25 26 28 30 31 33 35 35 35 36 37 37 36 33 35 33 30 31 37 34 33
13 8 8 10 11 13 17 9 4 3 7 14 12 12 13 16 19 18 20 26 27 26 26 26 28 30 33 31 34 38 39 40 41 39 36 36 35 34 31 32 32 32 38 37
3 7 8 11 12 11 11 10 6 3 5 11 10 10 13 17 11 11 28 27 28 27 29 29 30 33 31 35 35 37 36 35 39 37 38 40 32 35 32 31 32 36 38 36
9 8 11 10 11 10 8 4 5 7 3 8 10 12 15 12 17 24 26 26 26 28 30 31 32 33 34 34 35 37 36 36 35 35 38 40 45 42 34 33 33 34 35 38
7 9 9 12 14 14 9 2 5 5 7 10 12 15 17 19 22 23 27 29 30 31 30 28 29 33 33 34 35 36 39 38 39 38 38 39 42 42 40 37 35 38 41 40
10 3 4 5 4 5 11 8 3 5 8 11 13 16 18 19 23 25 27 25 28 31 31 29 30 33 33 37 34 41 42 41 39 37 38 38 41 37 35 36 37 39 35 34
7 5 4 5 6 3 4 4 3 8 11 13 15 16 18 20 22 22 25 25 29 24 26 28 30 36 36 35 38 38 40 39 37 37 39 41 39 38 36 34 33 34 34 35
4 4 3 5 8 6 3 8 9 12 13 12 13 15 18 20 19 22 22 24 24 22 24 25 28 32 35 38 39 38 36 32 33 37 38 34 34 33 33 30 33 32 36 34
12 6 5 2 5 4 6 8 10 7 8 11 13 18 19 17 19 19 20 19 20 26 23 25 28 31 36 36 34 32 32 29 32 36 35 33 33 32 29 30 37 38 35 29
Wind_Direction
203 224 228 228 225 246 271 307 303 308 322 312 239 277 294 295 273 268 193 231 226 188 188 189 191 197 202 205 206 208 201 200 211 219 212 205 208 205 212 202 217 221 233 226
205 228 250 238 256 338 314 297 276 291 302 299 290 276 258 262 268 265 273 267 258 207 185 184 190 194 202 209 212 215 211 210 205 219 225 223 214 219 217 220 213 221 225 225
244 239 204 309 288 247 264 265 281 268 286 290 278 261 259 254 262 244 265 233 307 300 225 185 185 193 200 208 216 222 225 220 215 211 222 228 223 218 224 225 224 220 225 225
225 260 229 226 248 254 251 239 231 267 277 272 285 303 244 218 222 238 243 222 240 343 257 189 185 192 196 204 221 227 234 238 232 224 217 226 224 218 216 222 229 228 226 226
238 224 253 245 251 228 258 346 337 292 281 288 279 264 270 288 183 198 174 199 68 48 41 33 28 191 195 203 214 233 237 238 246 245 237 226 235 233 228 226 226 228 231 231
261 263 280 249 225 243 289 282 259 262 256 254 250 253 277 80 166 130 78 78 67 67 64 48 38 28 45 59 198 229 236 246 239 240 250 244 238 239 234 231 230 227 233 232
224 236 219 216 260 197 206 248 257 235 226 240 303 215 240 77 89 86 91 82 65 61 65 58 39 26 18 16 19 30 30 238 244 243 246 254 254 247 242 236 236 232 228 232
235 201 194 180 228 245 201 226 256 298 307 339 201 253 253 107 117 104 98 94 90 72 67 64 64 40 38 21 20 21 32 30 14 269 261 261 260 258 257 246 238 241 233 231
320 139 87 119 201 239 252 240 234 278 293 282 288 287 13 83 86 87 91 85 79 85 83 68 70 51 32 27 25 15 20 16 5 6 321 289 268 263 263 263 249 246 241 237
323 313 171 142 192 261 273 302 301 246 254 268 277 39 82 109 110 107 96 89 76 64 64 53 46 43 32 24 17 11 13 9 352 330 316 345 314 284 259 258 256 254 248 246
287 294 284 240 219 247 218 215 242 259 279 313 309 60 102 75 103 102 94 80 71 54 48 27 27 21 15 14 8 359 359 355 348 336 325 323 329 331 278 264 264 261 258 252
47 316 278 277 308 325 306 300 307 294 276 280 292 301 102 120 100 104 97 78 53 42 23 8 9 359 358 354 349 345 342 340 335 329 329 324 306 302 316 271 271 271 263 260
21 219 254 259 253 253 250 288 266 273 274 267 279 282 136 130 121 79 50 32 359 1 348 341 357 348 354 352 344 336 331 328 327 322 320 314 313 312 301 298 280 275 272 273
329 277 268 277 302 323 284 281 232 237 253 274 269 283 294 90 95 87 41 5 355 353 345 339 327 327 345 339 335 330 324 321 318 317 315 313 313 304 308 301 290 278 282 277
321 258 261 268 275 287 293 288 285 281 279 271 273 282 314 47 32 34 31 7 343 338 330 329 2 356 334 329 326 322 318 317 315 313 311 306 309 311 298 304 300 286 280 277
141 274 291 277 280 276 270 266 264 263 270 273 271 272 44 34 20 11 355 343 329 333 358 345 339 333 328 325 322 317 314 313 313 311 307 306 306 306 305 297 301 295 286 281
235 263 286 272 292 299 275 269 276 277 251 335 296 46 55 20 7 352 342 338 14 354 340 332 326 322 319 315 312 313 311 311 308 308 305 305 305 303 304 300 296 296 296 294
258 266 263 274 285 270 274 260 360 302 351 8 322 36 23 359 347 338 323 6 348 337 328 322 315 314 314 313 312 310 309 306 304 300 300 300 299 300 298 296 297 303 301 294
215 236 271 255 261 275 280 48 69 34 70 36 19 19 353 342 328 306 348 342 335 329 325 326 325 321 318 318 318 315 311 309 305 302 305 299 297 296 297 298 297 304 302 299
239 211 240 260 269 271 82 83 48 79 214 42 19 357 341 334 313 327 336 324 322 324 325 323 321 318 316 315 315 315 312 307 305 302 297 291 295 303 288 293 298 298 298 295
199 219 230 237 250 264 64 35 317 239 40 3 353 343 338 330 325 324 319 317 317 317 316 312 316 313 311 312 311 309 306 302 303 303 303 300 288 285 299 298 291 297 296 298
242 211 222 229 245 244 21 159 346 21 349 341 343 342 333 326 318 320 317 313 317 320 321 320 316 316 317 315 312 311 308 304 302 303 306 299 305 286 285 288 296 292 295 295
233 12 331 4 50 134 101 89 28 355 336 339 342 333 326 321 314 315 315 326 322 323 321 320 316 320 320 319 315 314 317 312 310 302 303 307 305 303 287 288 290 298 296 292
163 151 253 348 104 73 58 5 6 17 5 343 328 325 314 311 311 314 329 325 321 322 320 324 325 326 327 325 324 320 318 316 309 306 305 304 305 303 293 288 292 291 295 292
15 133 262 273 282 317 73 46 11 344 331 328 326 314 305 307 331 331 329 323 324 322 320 325 328 329 330 332 325 319 323 318 313 310 311 308 304 301 299 285 287 287 297 289
276 338 244 31 55 331 334 354 338 341 332 324 309 309 322 338 325 326 324 320 322 323 336 331 331 333 333 334 339 349 340 340 329 321 317 314 308 310 298 294 291 295 297 288